Regional Weather Roundup
Issued by NWS

Home | Current Version | Previous Version | Graphics & Text | Print | Product List | Glossary On
Versions: 1 2 3 4 5 6 7 8 9 10 11 12 13 14 15 16 17 18 19 20 21 22 23 24 25 26 27 28 29 30 31 32 33 34 35 36 37 38 39 40 41 42 43 44 45 46 47 48 49 50
000
ASUS43 KIND 010159
RWRIN

WEATHER ROUNDUP FOR INDIANA
NATIONAL WEATHER SERVICE INDIANAPOLIS IN
1000 PM EDT TUE SEP 30 2014

NOTE: "FAIR" INDICATES FEW OR NO CLOUDS BELOW 12,000 FEET WITH NO
SIGNIFICANT WEATHER AND/OR OBSTRUCTIONS TO VISIBILITY.

* - STATION DOES NOT REPORT WEATHER SUCH AS PRECIPITATION OR FOG.

+ - STATION NOT QUALITY CONTROLLED BY THE NATIONAL WEATHER SERVICE.
    USE DATA WITH CAUTION...ESPECIALLY DEWPOINT AND RELATIVE
    HUMIDITY OBSERVATIONS.

INZ001>003-010>013-019-020-010300-
NORTHWEST INDIANA

CITY           SKY/WX    TMP DP  RH WIND       PRES   REMARKS
RENSSELAER +   PTCLDY    50  46  87 N5        30.02R
VALPARAISO     NOT AVBL

$$

LMZ046-743>745-010300-
SOUTHERN LAKE MICHIGAN

STATION/POSITION TIME  TEMP WIND        PRES
                       AIR  DIR/SP/G
                 (UTC) (F)  (DEG/KT/KT) (MB)
MICHIGAN CITY    0100   54   70/  8/ 10   N/A

$$

INZ004-005-014>016-021>024-010300-
NORTH CENTRAL INDIANA

CITY           SKY/WX    TMP DP  RH WIND       PRES   REMARKS
SOUTH BEND     NOT AVBL
WARSAW +       CLOUDY    54  46  76 E5        30.02S

$$

INZ006>009-017-018-025>027-010300-
NORTHEAST INDIANA

CITY           SKY/WX    TMP DP  RH WIND       PRES   REMARKS
ANGOLA *+      CLOUDY    54  48  82 NE3       30.01F
FORT WAYNE     CLOUDY    54  49  83 CALM      30.03R

$$

INZ028-029-035-036-043>045-051>053-010300-
WEST CENTRAL INDIANA

CITY           SKY/WX    TMP DP  RH WIND       PRES   REMARKS
GREENCASTLE +  CLEAR     57  50  77 CALM      29.98R
LAFAYETTE      CLEAR     52  46  80 NE8       30.00R
TERRE HAUTE    CLEAR     59  53  80 NE5       29.96R

$$

INZ030>032-037>040-046>048-054>057-064-065-010300-
CENTRAL INDIANA

CITY           SKY/WX    TMP DP  RH WIND       PRES   REMARKS
FRANKFORT +    CLEAR     53  48  86 NE6       30.01R
INDIANAPOLIS   PTCLDY    59  48  67 NE9       29.96R
-EAGLE CREEK   CLEAR     58  48  69 MISG      29.97R
KOKOMO *+      CLEAR     48  43  81 NE5       30.01S
MT COMFORT *+  PTCLDY    52  46  82 NE6       29.99R
SHELBYVILLE    PTCLDY    58  50  75 NE7       29.97R

$$

INZ033-034-041-042-049-050-058-059-010300-
EAST CENTRAL INDIANA

CITY           SKY/WX    TMP DP  RH WIND       PRES   REMARKS
MUNCIE         CLEAR     49  45  86 NE5       30.00R

$$

INZ060-061-067>069-081>083-085>088-010300-
SOUTHWEST INDIANA

CITY           SKY/WX    TMP DP  RH WIND       PRES   REMARKS
EVANSVILLE     CLEAR     71  60  68 N5        29.92R

$$

INZ062-063-066-070>080-084-089>092-010300-
SOUTH CENTRAL AND SOUTHEAST INDIANA

CITY           SKY/WX    TMP DP  RH WIND       PRES   REMARKS
BLOOMINGTON    CLEAR     59  54  83 CALM      29.96R
SEYMOUR +      CLEAR     63  55  77 NE5       29.95

$$



USA.gov is the U.S. government's official web portal to all federal, state and local government web resources and services.